• In Lithuania
  • List of Countries
  • For 7 days
  • Water Temperature
  • Satellite Maps
  • Weather Map
  • Weather Widgets
  • user-avatar
    Login

    Hourly Weather Egra

    Today, 23 June, Saturday

    Time Temperature Precipitation Wind Pressure Humidity
    00:00 +35°C° 0 mm 3 mps 751 mmHg 64%
    01:00 +34°C° 0.3 mm 4 mps 751 mmHg 65%
    02:00 +34°C° 0.3 mm 4 mps 750 mmHg 66%
    03:00 +34°C° 0.3 mm 5 mps 750 mmHg 67%
    04:00 +33°C° 0.2 mm 5 mps 750 mmHg 67%
    05:00 +33°C° 0.2 mm 4 mps 751 mmHg 66%
    06:00 +33°C° 0 mm 3 mps 751 mmHg 69%
    07:00 +34°C° 0.1 mm 3 mps 751 mmHg 63%
    08:00 +36°C° 0.1 mm 3 mps 751 mmHg 58%
    09:00 +37°C° 0.1 mm 3 mps 751 mmHg 52%
    10:00 +38°C° 0 mm 4 mps 751 mmHg 49%
    11:00 +40°C° 0 mm 4 mps 751 mmHg 46%
    12:00 +39°C° 0 mm 5 mps 751 mmHg 50%
    13:00 +39°C° 0.3 mm 5 mps 751 mmHg 52%
    14:00 +37°C° 0.3 mm 5 mps 750 mmHg 53%
    15:00 +38°C° 0.3 mm 6 mps 750 mmHg 55%
    16:00 +36°C° 0.8 mm 6 mps 750 mmHg 57%
    17:00 +36°C° 0.8 mm 6 mps 750 mmHg 59%
    18:00 +35°C° 0.8 mm 6 mps 750 mmHg 61%
    19:00 +35°C° 0.8 mm 6 mps 750 mmHg 62%
    20:00 +34°C° 0.8 mm 6 mps 750 mmHg 63%
    21:00 +34°C° 0.8 mm 6 mps 750 mmHg 64%
    22:00 +34°C° 0.5 mm 6 mps 750 mmHg 64%
    23:00 +33°C° 0.5 mm 6 mps 750 mmHg 65%

    Tomorrow, 24 June, Sunday

    Time Temperature Precipitation Wind Pressure Humidity
    00:00 +33°C° 0.5 mm 7 mps 750 mmHg 66%
    01:00 +33°C° 1.1 mm 6 mps 750 mmHg 67%
    02:00 +32°C° 1.1 mm 6 mps 750 mmHg 69%
    03:00 +32°C° 1.1 mm 5 mps 749 mmHg 70%
    04:00 +32°C° 0.2 mm 5 mps 750 mmHg 70%
    05:00 +32°C° 0.2 mm 4 mps 750 mmHg 71%
    06:00 +32°C° 0.2 mm 4 mps 750 mmHg 71%
    07:00 +32°C° 0.1 mm 4 mps 750 mmHg 69%
    08:00 +33°C° 0.1 mm 5 mps 750 mmHg 68%
    09:00 +33°C° 0.1 mm 5 mps 751 mmHg 66%
    10:00 +35°C° 0 mm 5 mps 751 mmHg 59%
    11:00 +37°C° 0 mm 5 mps 751 mmHg 53%
    12:00 +39°C° 0 mm 5 mps 750 mmHg 46%
    13:00 +40°C° 0 mm 5 mps 750 mmHg 45%
    14:00 +40°C° 0 mm 6 mps 750 mmHg 44%
    15:00 +40°C° 0 mm 6 mps 749 mmHg 43%
    16:00 +39°C° 0 mm 6 mps 749 mmHg 46%
    17:00 +39°C° 0 mm 7 mps 749 mmHg 49%
    18:00 +38°C° 0 mm 7 mps 748 mmHg 52%
    19:00 +36°C° 0 mm 7 mps 749 mmHg 54%
    20:00 +36°C° 0 mm 6 mps 749 mmHg 57%
    21:00 +35°C° 0 mm 6 mps 750 mmHg 60%
    22:00 +34°C° 0.7 mm 6 mps 750 mmHg 62%
    23:00 +34°C° 0.7 mm 6 mps 750 mmHg 63%

    Day after tomorrow, 25 June, Monday

    Time Temperature Precipitation Wind Pressure Humidity
    00:00 +33°C° 0.7 mm 5 mps 750 mmHg 64%
    01:00 +33°C° 0 mm 6 mps 749 mmHg 66%
    02:00 +33°C° 0 mm 6 mps 749 mmHg 67%
    03:00 +33°C° 0 mm 6 mps 748 mmHg 69%
    04:00 +33°C° 0.2 mm 5 mps 748 mmHg 70%
    05:00 +33°C° 0.2 mm 4 mps 748 mmHg 71%
    06:00 +33°C° 0.2 mm 4 mps 748 mmHg 72%
    07:00 +34°C° 0 mm 3 mps 749 mmHg 65%
    08:00 +35°C° 0 mm 3 mps 749 mmHg 59%
    09:00 +37°C° 0 mm 3 mps 749 mmHg 53%
    10:00 +38°C° 0 mm 3 mps 749 mmHg 49%
    11:00 +39°C° 0 mm 3 mps 749 mmHg 45%
    12:00 +41°C° 0 mm 4 mps 749 mmHg 41%
    13:00 +41°C° 0 mm 4 mps 748 mmHg 41%
    14:00 +41°C° 0 mm 4 mps 748 mmHg 42%
    15:00 +41°C° 0 mm 5 mps 747 mmHg 42%
    16:00 +40°C° 0 mm 5 mps 747 mmHg 44%
    17:00 +40°C° 0 mm 5 mps 747 mmHg 45%
    18:00 +40°C° 0 mm 5 mps 747 mmHg 47%
    19:00 +39°C° 0 mm 5 mps 747 mmHg 51%
    20:00 +38°C° 0 mm 6 mps 747 mmHg 56%
    21:00 +36°C° 0 mm 6 mps 748 mmHg 60%
    22:00 +36°C° 0.4 mm 6 mps 748 mmHg 60%
    23:00 +35°C° 0.4 mm 6 mps 748 mmHg 60%

    26 June, Tuesday

    Time Temperature Precipitation Wind Pressure Humidity
    00:00 +35°C° 0.4 mm 6 mps 749 mmHg 61%
    01:00 +35°C° 0.1 mm 6 mps 748 mmHg 62%
    02:00 +34°C° 0.1 mm 5 mps 748 mmHg 63%
    03:00 +34°C° 0.1 mm 5 mps 747 mmHg 64%
    04:00 +34°C° 0 mm 4 mps 747 mmHg 65%
    05:00 +34°C° 0 mm 4 mps 747 mmHg 66%
    06:00 +33°C° 0 mm 3 mps 747 mmHg 67%
    07:00 +35°C° 0 mm 3 mps 748 mmHg 62%
    08:00 +36°C° 0 mm 3 mps 748 mmHg 57%
    09:00 +37°C° 0 mm 3 mps 749 mmHg 52%
    10:00 +38°C° 0 mm 3 mps 749 mmHg 48%
    11:00 +39°C° 0 mm 3 mps 749 mmHg 45%
    12:00 +41°C° 0 mm 4 mps 749 mmHg 42%
    13:00 +41°C° 0 mm 4 mps 748 mmHg 42%
    14:00 +41°C° 0 mm 5 mps 748 mmHg 42%
    15:00 +41°C° 0 mm 5 mps 747 mmHg 43%
    16:00 +40°C° 0 mm 6 mps 747 mmHg 46%
    17:00 +39°C° 0 mm 6 mps 747 mmHg 49%
    18:00 +38°C° 0 mm 7 mps 747 mmHg 52%
    19:00 +36°C° 0.1 mm 7 mps 747 mmHg 55%
    20:00 +35°C° 0.1 mm 7 mps 748 mmHg 58%
    21:00 +34°C° 0.1 mm 7 mps 748 mmHg 61%
    22:00 +34°C° 0.5 mm 6 mps 749 mmHg 62%
    23:00 +34°C° 0.5 mm 6 mps 749 mmHg 63%

    27 June, Wednesday

    Time Temperature Precipitation Wind Pressure Humidity
    00:00 +34°C° 0.5 mm 5 mps 749 mmHg 64%
    01:00 +34°C° 0.1 mm 4 mps 749 mmHg 65%
    02:00 +33°C° 0.1 mm 4 mps 748 mmHg 66%
    03:00 +33°C° 0.1 mm 3 mps 748 mmHg 67%
    04:00 +33°C° 0 mm 3 mps 748 mmHg 68%
    05:00 +33°C° 0 mm 3 mps 748 mmHg 69%
    06:00 +33°C° 0 mm 3 mps 748 mmHg 70%
    07:00 +34°C° 0.3 mm 3 mps 749 mmHg 65%
    08:00 +35°C° 0.3 mm 3 mps 749 mmHg 60%
    09:00 +36°C° 0.3 mm 3 mps 750 mmHg 55%
    10:00 +37°C° 0.5 mm 4 mps 749 mmHg 52%
    11:00 +38°C° 0.5 mm 4 mps 749 mmHg 49%
    12:00 +40°C° 0.5 mm 4 mps 749 mmHg 45%
    13:00 +40°C° 0 mm 4 mps 749 mmHg 45%
    14:00 +40°C° 0 mm 5 mps 748 mmHg 45%
    15:00 +40°C° 0 mm 5 mps 748 mmHg 45%
    16:00 +39°C° 0 mm 5 mps 748 mmHg 48%
    17:00 +37°C° 0 mm 5 mps 748 mmHg 50%
    18:00 +37°C° 0 mm 5 mps 748 mmHg 53%
    19:00 +36°C° 0.1 mm 5 mps 749 mmHg 57%
    20:00 +35°C° 0.1 mm 5 mps 749 mmHg 60%
    21:00 +34°C° 0.1 mm 5 mps 750 mmHg 64%
    22:00 +34°C° 0.1 mm 5 mps 750 mmHg 65%
    23:00 +33°C° 0.1 mm 5 mps 750 mmHg 67%

    28 June, Thursday

    Time Temperature Precipitation Wind Pressure Humidity
    00:00 +33°C° 0.1 mm 4 mps 750 mmHg 68%
    01:00 +33°C° 0.1 mm 4 mps 749 mmHg 68%
    02:00 +33°C° 0.1 mm 4 mps 749 mmHg 68%
    03:00 +33°C° 0.1 mm 3 mps 749 mmHg 69%
    04:00 +33°C° 0 mm 3 mps 749 mmHg 69%
    05:00 +31°C° 0 mm 3 mps 749 mmHg 70%
    06:00 +31°C° 0 mm 2 mps 749 mmHg 70%
    07:00 +34°C° 0.1 mm 2 mps 750 mmHg 64%
    08:00 +35°C° 0.1 mm 3 mps 750 mmHg 59%
    09:00 +36°C° 0.1 mm 3 mps 750 mmHg 53%
    10:00 +37°C° 0 mm 4 mps 750 mmHg 50%
    11:00 +39°C° 0 mm 5 mps 750 mmHg 48%
    12:00 +40°C° 0 mm 5 mps 750 mmHg 45%
    13:00 +39°C° 0 mm 6 mps 749 mmHg 47%
    14:00 +39°C° 0 mm 6 mps 749 mmHg 48%
    15:00 +39°C° 0 mm 7 mps 748 mmHg 49%
    16:00 +38°C° 0 mm 7 mps 749 mmHg 54%
    17:00 +36°C° 0 mm 7 mps 749 mmHg 58%
    18:00 +35°C° 0 mm 7 mps 749 mmHg 62%
    19:00 +34°C° 0 mm 7 mps 749 mmHg 65%
    20:00 +34°C° 0 mm 7 mps 750 mmHg 68%
    21:00 +33°C° 0 mm 7 mps 751 mmHg 71%
    22:00 +33°C° 0.2 mm 7 mps 751 mmHg 72%
    23:00 +33°C° 0.2 mm 7 mps 750 mmHg 72%
    Show more